Regional Weather Roundup
Issued by NWS

Home | Current Version | Previous Version | Graphics & Text | Print | Product List | Glossary On
Versions: 1 2 3 4 5 6 7 8 9 10 11 12 13 14 15 16 17 18 19 20 21 22 23 24 25 26 27 28 29 30 31 32 33 34 35 36 37 38 39 40 41 42 43 44 45 46 47 48 49 50
000
ASUS43 KMKX 231921
RWRWI

WISCONSIN REGIONAL WEATHER ROUNDUP
NATIONAL WEATHER SERVICE MILWAUKEE/SULLIVAN WI
100 PM CST SUN NOV 23 2014

NOTE: "FAIR" INDICATES FEW OR NO CLOUDS BELOW 12,000 FEET WITH NO
SIGNIFICANT WEATHER AND/OR OBSTRUCTIONS TO VISIBILITY.

WIZ001-002-006>008-014>016-023>028-232000-
NORTHWEST WISCONSIN

CITY           SKY/WX    TMP DP  RH WIND       PRES   REMARKS
SUPERIOR ARPT  CLOUDY    40  40  99 CALM      29.41F FOG
ASHLAND        CLOUDY    48  46  93 S5        29.41F
HAYWARD        FOG       45  45 100 SW6       29.41F VSB<1/4
SIREN          LGT RAIN  43  42  98 W5        29.42S VSB<1/4
CUMBERLAND     FOG       41  41 100 CALM      29.41F VSB<1/4
RICE LAKE      DRZL/FOG  43  42  97 CALM      29.42F VSB<1/4
CHETEK         FOG       44  44 100 E6        29.41F VSB<1/4
LADYSMITH      FOG       45  44  97 SE5       29.43F VSB<1/4
EAU CLAIRE     CLOUDY    50  48  93 S10       29.41F
MENOMONIE      CLOUDY    50  49  97 S6        29.41F FOG
NEW RICHMOND   FOG       46  46 100 CALM      29.40F VSB<1/4
OSCEOLA        FOG       43  43 100 CALM      29.43F VSB<1/4
$$

WIZ003>005-009-010-017-018-232000-
NORTH CENTRAL WISCONSIN

CITY           SKY/WX    TMP DP  RH WIND       PRES   REMARKS
MANITOWISH WTR FOG       42  42 100 S7        29.43F VSB<1/4
ARBOR VITAE    FOG       44  43  96 S6        29.45F VSB<1/4
WOODRUFF       FOG       44  43  96 S6        29.45F VSB<1/4
RHINELANDER    FOG       44  44 100 S7        29.46F VSB 1/4
EAGLE RIVER    FOG       44  44 100 S5        29.45F VSB 1/4
LAND O LAKES   FOG       45  45 100 S3        29.46S VSB 1/4
PHILLIPS       FOG       43  43 100 SE5       29.42F VSB<1/4
TOMAHAWK       FOG       44  43  97 CALM      29.46F VSB 1/4
MEDFORD        FOG       43  43 100 SE6       29.44F VSB<1/4
MERRILL        DRZL/FOG  45  45 100 S3        29.46F VSB 1/2
$$

WIZ029-030-035-036-043>047-232000-
CENTRAL WISCONSIN

CITY           SKY/WX    TMP DP  RH WIND       PRES   REMARKS
WAUSAU         FOG       46  46 100 S10       29.46F VSB 1/2
MOSINEE        FOG       46  46 100 S7        29.48F VSB 1/8
MARSHFIELD     FOG       47  46  97 S7        29.45F VSB<1/4
STEVENS POINT  DRIZZLE   46  46 100 S8        29.48F
WAUPACA        CLOUDY    50  49  96 S6        29.50F FOG
WAUTOMA        CLOUDY    50  49  96 S3        29.49F FOG
WISC RAPIDS    CLOUDY    50  47  89 S6        29.48F FOG
CAMP DOUGLAS   LGT RAIN  50  50 100 SE5       29.46F FOG
$$

WIZ011>013-019>022-031-037>040-048>050-232000-
NORTHEAST WISCONSIN

CITY           SKY/WX    TMP DP  RH WIND       PRES   REMARKS
ANTIGO         FOG       40  40 100 S6        29.48F VSB<1/4
SHAWANO        CLOUDY    50  49  95 S6        29.52F FOG
OCONTO         CLOUDY    46  46 100 S7        29.53F
STURGEON BAY   CLOUDY    45  43  93 S6        29.53F
GREEN BAY      CLOUDY    48  47  96 S6        29.51F FOG
MANITOWOC      LGT RAIN  45  44  97 S12       29.55F FOG
APPLETON       CLOUDY    46  46 100 S8        29.52F FOG
CLINTONVILLE   CLOUDY    46  46 100 S10       29.51F FOG
OSHKOSH        LGT RAIN  48  45  89 S7        29.51F FOG
$$

WIZ032>034-041-042-053>061-232000-
SOUTHWEST WISCONSIN

CITY           SKY/WX    TMP DP  RH WIND       PRES   REMARKS
LA CROSSE      LGT RAIN  50  48  93 S6        29.43F FOG
SPARTA         CLOUDY    51  49  95 S6        29.45F
VIROQUA        CLOUDY    48  48 100 SE6       29.44F
BOSCOBEL       LGT RAIN  52  49  89 S3        29.46F FOG
PRAIRIE DU CHI RAIN      50  48  93 E5        29.44F
PLATTEVILLE    CLOUDY    48  47  97 SE8       29.48F
$$

WIZ056-057-062-063-064-067-068-232000-
SOUTH CENTRAL WISCONSIN

CITY           SKY/WX    TMP DP  RH WIND       PRES   REMARKS
REEDSBURG      LGT RAIN  49  48  97 S5        29.47F
BARABOO/DELLS  LGT RAIN  49  47  93 S12       29.47F
LONE ROCK      LGT RAIN  53  47  79 SE9       29.47F
MINERAL POINT  RAIN      48  46  93 SE8       29.47F
MADISON        LGT RAIN  48  46  93 S9        29.51F FOG
MIDDLETON      CLOUDY    49  48  97 S8        29.50F
WATERTOWN      RAIN      47  47 100 SE8       29.52F
MONROE         HVY RAIN  46  45  93 S9        29.50F VSB 1
JANESVILLE     LGT RAIN  48  46  93 SE8       29.53F FOG
$$

WIZ051-052-058>065-066-070>072-232000-
SOUTHEAST WISCONSIN

CITY           SKY/WX    TMP DP  RH WIND       PRES   REMARKS
MILWAUKEE      CLOUDY    50  46  86 S8        29.55F
WAUKESHA       NOT AVBL
MILWAUKEE/TIMM LGT RAIN  48  46  93 S6        29.57F FOG
RACINE         CLOUDY    47  44  90 S13       29.58F
BURLINGTON     RAIN      48  47  94 S6        29.54F
KENOSHA        LGT RAIN  51  48  89 S8        29.55F FOG
FOND DU LAC    LGT RAIN  49  46  90 S17       29.51F
SHEBOYGAN      LGT RAIN  47  45  93 S9        29.54F FOG
WEST BEND      RAIN      46  45  93 S8        29.55F
JUNEAU         LGT RAIN  47  46  96 SE13G18   29.52F
$$

LSZ147-162-232000-
LAKE SUPERIOR

STATION/POSITION TIME  TEMP    WIND        PRES    WAVE
                       AIR SEA DIR/SP/G            HT/PER
                 (UTC) (F)     (DEG/KT/KT) (MB)    (FT/S)
DEVILS ISLAND    1900   42     210/  4/  4  996.2F
PORT WING        1800   39      CALM  /  1  996.6F
SAXON HARBOR     1800   51     190/  3/  8  996.6F
$$

LMZ867-665-643>646-232000-
LAKE MICHIGAN

STATION/POSITION TIME  TEMP    WIND        PRES    WAVE
                       AIR SEA DIR/SP/G            HT/PER
                 (UTC) (F)     (DEG/KT/KT) (MB)    (FT/S)
CHAMBERS ISLAND  1800   45     150/  9/ 14 1001.4F
N MID LAKE BUOY  1850   45 42  200/ 19/ 23 1001.2F   6/ 6
NORTHPORT PIER   1820   44     170/  7/ 21 1001.4F
SISTER BAY       1843          180/ 16/ 19   N/A
ALGOMA LAKESHORE 1843          230/ 14/ 17   N/A
KEWAUNEE LAKESHO 1900   40     180/  9/ 10  999.9F
SHEBOYGAN LAKESH 1900   44 40  180/ 18/ 19 1000.9F
PORT WASHINGTON  1900   43     210/  5/ 10 1001.7F
ATWATER BUOY     1900   49      CALM  /  2 1003.7F
MILWAUKEE LAKESH 1900   42     140/  9/ 10   N/A
S MID LAKE BUOY  1850   45 43  150/ 14/ 14 1002.8F   3/ 5
KENOSHA   LAKESH 1900   44     170/ 12/ 13 1001.4F
$$

TC  - TEMPERATURE IN CELSIUS
VSB - VISIBILITY IN STATUTE MILES
WCI - WIND CHILL INDEX
HX  - HEAT INDEX



USA.gov is the U.S. government's official web portal to all federal, state and local government web resources and services.